Overview Statistics Trail Chart Weather Telemetry Raw packets
 

This is the latest recevied weather packets stored in our database for station/object W5ITZ. If no packets are shown the sender has not sent any weather packets the latest 10 day(s).

<< 1 2 3 4 5 6 >>
Time Temp. Humidity Pressure Rain* Wind** Luminosity Snow
1788220492 31.11° C 69% 1013.5 hPa 0 mm - 53 W/m² -
1788220187 31.67° C 69% 1013.5 hPa 0 mm - 62 W/m² -
1788219881 31.67° C 69% 1013.3 hPa 0 mm - 69 W/m² -
1788219577 31.67° C 69% 1013.1 hPa 0 mm - 69 W/m² -
1788219272 31.67° C 68% 1013.2 hPa 0 mm - 73 W/m² -
1788218968 32.22° C 67% 1013.3 hPa 0 mm - 93 W/m² -
1788218663 32.78° C 65% 1013 hPa 0 mm - 102 W/m² -
1788218359 32.78° C 63% 1013.2 hPa 0 mm - 118 W/m² -
1788218055 32.78° C 61% 1013.3 hPa 0 mm - 120 W/m² -
1788217751 33.33° C 59% 1013.3 hPa 0 mm - 111 W/m² -
1788217445 33.89° C 56% 1013.1 hPa 0 mm - 155 W/m² -
1788217140 33.89° C 55% 1013.1 hPa 0 mm - 212 W/m² -
1788216835 33.89° C 51% 1013.4 hPa 0 mm - 243 W/m² -
1788216530 33.89° C 47% 1013.2 hPa 0 mm - 267 W/m² -
1788216225 33.89° C 47% 1013.1 hPa 0 mm - 135 W/m² -
1788215919 33.89° C 49% 1013.2 hPa 0 mm - 239 W/m² -
1788215616 34.44° C 48% 1013.2 hPa 0 mm - 225 W/m² -
1788215312 33.89° C 50% 1013.1 hPa 0 mm - 427 W/m² -
1788215008 33.89° C 51% 1013.3 hPa 0 mm - 448 W/m² -
1788214708 33.89° C 53% 1013 hPa 0 mm - 478 W/m² -
1788214403 33.89° C 56% 1013.3 hPa 0 mm - 503 W/m² -
1788214098 33.33° C 58% 1013.2 hPa 0 mm - 539 W/m² -
1788213793 33.89° C 57% 1013.3 hPa 0 mm - 444 W/m² -
1788213489 33.33° C 60% 1013.4 hPa 0 mm - 586 W/m² -
1788213185 33.89° C 59% 1013.4 hPa 0 mm - 604 W/m² -

* Rain latest hour (hover to see other rain measurements)
** Current wind speed in m/s (hover to see current wind gust speed)